Location: Asheville, NC
(35.6000°N, 82.5500°W)
Time: 16:30:07
(UTC-04:00)

ISS - Pass Details

Date: 11 May 2026
Orbit: 414 x 424 km, 51.6° (Epoch: 15 May)

Event Time Altitude Azimuth Distance (km) Brightness Sun altitude
Rises 21:52:14 0° 273° (W) 2,339 1.0 -16.1°
Reaches altitude 10° 21:55:05 10° 299° (WNW) 1,480 0.3 -16.6°
Maximum altitude 21:56:57 14° 334° (NNW) 1,259 -0.4 -16.9°
Drops below altitude 10° 21:58:48 10° 8° (N) 1,484 -0.6 -17.2°
Sets 22:01:40 0° 35° (NE) 2,350 0.1 -17.6°
